STARLINK-35925, 66887

Orbit data source: Space-Track

STARLINK-35925, 66887 is a payload satellite owned by SpaceX/Seattle (US) in LEO that was launched on Thu, 04 Dec 2025 UTC via an FALCON 9 launch vehicle from the Air Force Western Test Range (AFWTR). Payload-class satellites include a variety of spacecraft equipped with specific instruments for various scientific and technological missions. These include communications satellites like Starlink; space stations such as the ISS; scientific satellites like the Hubble; Earth observation satellites from companies like Planet Labs, Umbra, and HawkEye 360; GPS; miniature CubeSats for education and research; and military/defense satellites.

Loading next visibility...
Identifier
66887, 2025-283K
Orbit
LEO
Country
Flag of USUS
Related business
Manufacturer
SpaceX/Seattle
Mission
Operational Commercial Communications
Bus & Motor
STARLINK V2MO, Unknown motor
Mass
575 kg wet, ~530 kg dry
Launch date (UTC)
2025-12-04 (7 months ago)
Launch vehicle
FALCON 9
Launch site
Air Force Western Test Range (AFWTR)
Object type
Payload
Rocket body
Debris
Shape & HBR
Box + 2 Pan, 17.7 m
Radar Cross Section
36.964 m², Large (>1 m²)

Expand to show TLE details & history
Last TLE update: 1 day ago

TLE from 1 day ago
0 STARLINK-35925
1 66887U 25283K   26170.57584274  .00025250  00000-0  75681-3 0  9997
2 66887  53.1571 270.1930 0001296 104.2521 255.8626 15.34362760 31458
Epoch: 2026-06-19T13:49Z
TLE epoch observation values (Epoch: 2026-06-19T13:49:12.812Z)
Latitude
Longitude
155.08678°
Altitude
463.932 km
Speed
7.636 km/s
True Right ascension
18h 00m 46s
True Declination
0° 00' 00"
Sunlit
Object was in full shadow at epoch
Visualization orbit readout
Latitude
Unknown
Longitude
Unknown
Altitude
Unknown
Speed
Unknown
Apparent Right ascension
Unknown
Apparent Declination
Unknown
Sunlit
N/A
Visualization observer readout
Local Sidereal Time
07:18:21
Azimuth
Unknown
Elevation
Unknown
Doppler factor
Unknown
Orbital elements
Apogee altitude
463.958 km
Perigee altitude
462.185 km
Semi-major axis
6,841.208 km
Eccentricity
0.00013
Inclination
53.1571°
RAAN
270.193°
Arg. of periapsis
104.2521°
True anomaly
255.8482°
Mean anomaly
255.8626°
Eccentric anomaly
255.8554°
Mean motion
3.83569 °/min
Orbital period
93.86 mins
BSTAR
0.00075681
Loading maneuver chart data...
Computing Atmospheric mass density...
Loading historical data...
Loading historical data...
Loading historical data...
Loading historical data...
Loading historical data...
Loading historical data...
Loading historical data...

Documentation

Showing up to 5 results
|